Location: Dehesa de la Cepeda
(40.6574°N, 4.3013°W)
Time: 04:16:48
(UTC+00:00)

Meteor 2-10 Rocket - Pass Details

Date: 05 July 2020
Orbit: 734 x 884 km, 81.2° (Epoch: 11 August)

Event Time Altitude Azimuth Distance (km) Brightness Sun altitude
Rises 21:11:19 0° 348° (NNW) 3,199 7.8 -12.7°
Reaches altitude 10° 21:13:38 10° 346° (NNW) 2,285 6.9 -13.0°
Maximum altitude 21:18:44 73° 263° (W) 807 3.7 -13.7°
Enters shadow 21:23:39 12° 180° (S) 2,214 5.4 -14.3°
